Regional Weather Roundup
Issued by NWS Charleston, SC

Current Version | Previous Version | Graphics & Text | Print | Product List | Glossary On
Versions: 1 2 3 4 5 6 7 8 9 10 11 12 13 14 15 16 17 18 19 20 21 22 23 24 25 26 27 28 29 30 31 32 33 34 35 36 37 38 39 40 41 42 43 44 45 46 47 48 49 50
000 ASUS42 KCHS 011427 RWRCHS REGIONAL WEATHER ROUNDUP NATIONAL WEATHER SERVICE CHARLESTON SC 1000 AM EDT WED JUL 01 2015 NOTE: "FAIR" INDICATES FEW OR NO CLOUDS BELOW 12,000 FEET WITH NO SIGNIFICANT WEATHER AND/OR OBSTRUCTIONS TO VISIBILITY. NOT ALL STATIONS ARE QUALITY CONTROLLED BY THE NATIONAL WEATHER SERVICE. USE DATA WITH CAUTION...ESPECIALLY DEWPOINT OBSERVATIONS. SCZ027-030-031-034>040-042>050-011500- ...SOUTHEAST SOUTH CAROLINA... CITY SKY/WX TMP DP RH WIND PRES REMARKS N CHARLESTON PTSUNNY 76 69 79 W12 30.03F WATERFRONT PAR N/A 76 70 81 W7 30.00S MOUNT PLEASANT LGT RAIN 79 72 78 SW8 30.03S JOHNS ISLAND FAIR 79 72 78 W9 30.03S PINOPOLIS NOT AVBL MONCKS CORNER FAIR 77 70 78 W7 30.02S SUMMERVILLE FAIR 77 72 83 SW5 30.03F BEAUFORT MCAS CLOUDY 77 70 79 W12 30.05S BEAUFORT ARPT FAIR 79 72 78 W12 30.04F HILTON HEAD IS SUNNY 75 70 83 SW12 30.07R WALTERBORO SUNNY 75 70 83 W10 30.04S ALLENDALE FAIR 77 72 83 VRB5 30.03S ...SOUTHERN MIDLANDS AND PEE DEE... CITY SKY/WX TMP DP RH WIND PRES REMARKS GEORGETOWN NOT AVBL KINGSTREE NOT AVBL ORANGEBURG MOSUNNY 74 69 85 W8 30.02S BARNWELL FAIR 75 72 88 SW10 30.04R AIKEN NOT AVBL MANNING FAIR 75 70 83 SW8 30.02S COLUMBIA CLOUDY 77 69 76 W9 30.00R SUMTER PTSUNNY 75 70 83 SW9 29.99R FLORENCE CLOUDY 75 70 84 W8 30.00R MYRTLE BEACH CLOUDY 75 68 78 SW8 30.02F N MYRTLE BEACH CLOUDY 75 69 81 W7 30.00S $$ GAZ063-065-086>088-099>101-113>116-118-119-134>141-150-011500- ...SOUTHEAST GEORGIA... CITY SKY/WX TMP DP RH WIND PRES REMARKS SAVANNAH ARPT PTSUNNY 79 68 69 W14G20 30.07S HUNTER AAF SUNNY 79 71 76 W13 30.05S FORT STEWART MOSUNNY 78 69 73 SW10 30.06S STATESBORO SUNNY 77 77 100 W7 30.06S SYLVANIA SUNNY 78 73 84 W5 30.06S CLAXTON FAIR 77 72 83 W7 30.08R ...CSRA...CENTRAL AND FAR SOUTHEAST GEORGIA... CITY SKY/WX TMP DP RH WIND PRES REMARKS THOMSON SUNNY 78 73 85 W6 30.08S AUGUSTA-BUSH SUNNY 76 69 79 VRB6 30.02R AUGUSTA-DANIEL SUNNY 76 68 76 VRB5 30.04R SWAINSBORO PTSUNNY 79 77 94 SW7 30.08R VIDALIA MOSUNNY 77 70 78 W8 30.08S EASTMAN FAIR 78 74 88 W8 30.10S HAZLEHURST FAIR 80 72 76 W9 30.09R ALMA SUNNY 77 69 76 W12 30.10S WAYCROSS MOSUNNY 84 76 77 W10 30.10F HX 92 JESUP FAIR 81 72 74 W9 30.11R BAXLEY FAIR 79 72 78 W7 30.09S BRUNSWICK MOSUNNY 81 68 65 W13 30.11S SAINT SIMONS SUNNY 79 66 64 W13 30.10S $$ SCZ027-028-034-036>038-045-046-048>050-GAZ119-141-011500- ...LAKE AND SUPPLEMENTAL COASTAL OBSERVATIONS... STATION/POSITION TIME TEMP WIND PRES WAVE SWELL AIR SEA DIR/SP/G HT/PER HT/PER/DIR (UTC) (F) (DEG/KT/KT) (MB) (FT/S) (FT/S/D) UPR LAKE MARION NOT AVBL WINYAH BAY 1300 74 250/ 7 1015.0S LAKE MURRAY 1300 75 250/ 5/ 11 1015.2R ACE BASIN NERRS 1300 75 140/ 3 1017.0 FORT PULASKI 1400 78 83 250/ 8/ 13 1018.5R SAPELO ISLAND 1400 78 250/ 14 1019.0S $$ ANZ835-935-AMZ111-154-330-350-352-354-370-450-454-472-011500- ...C-MAN AND BUOY OBSERVATIONS... STATION/POSITION TIME TEMP WIND PRES WAVE SWELL AIR SEA DIR/SP/G HT/PER HT/PER/DIR (UTC) (F) (DEG/KT/KT) (MB) (FT/S) (FT/S/D) BUOY 41004 1350 79 82 240/ 17/ 21 1016.2R 5/ 5 2/ 8 BUOY 41008 1350 77 79 250/ 16/ 19 1018.8R 3/ 4 2/170/ 9 FOLLY BEACH CMAN 1400 78 250/ 7/ 11 1016.9F CAPERS NEARSHORE 1308 77 260/ 16/ 19 1017.1R FRIPP NEARSHORE 1300 78 270/ 14/ 16 1017.1R STATION/POSITION TIME TEMP WIND PRES WAVE SWELL AIR SEA DIR/SP/G HT/PER HT/PER/DIR (UTC) (F) (DEG/KT/KT) (MB) (FT/S) (FT/S/D) 5E ST. MARYS GA 1321 77 N/A 2/ 9 FRYING PAN BUOY 1350 80 80 230/ 17/ 19 1016.1R 5/ 6 2/140/ 9 BUOY 41025 1350 81 82 240/ 19/ 21 1014.3R 5/ 6 2/310/13 CAPE LOOKOUT NC 1400 80 240/ 12/ 15 1015.0R BUOY 41002 1350 81 80 240/ 16/ 19 1019.1R 7/ 7 2/ 90/12 BUOY 41010 1320 83 84 250/ 14/ 16 1021.3R ST AUGUSTINE FL 1400 84 73 280/ 7/ 9 1021.1F $$

USA.gov is the U.S. government's official web portal to all federal, state and local government web resources and services.